Namest Nad Oslav, Czech Republic

1:38 AM CET on December 13, 2019 (GMT +0100)
Namest

Weather History for LKNA - August, 2019

Change the Weather History Date:

Sunday, August 25, 2019

  Actual Average Record
Temperature  
Mean Temperature 70 °F -  
Max Temperature 77 °F - - ()
Min Temperature 63 °F - - ()
Cooling Degree Days 5    
Growing Degree Days 20 (Base 50)    
Moisture  
Dew Point 59 °F    
Average Humidity 67    
Maximum Humidity 88    
Minimum Humidity 41    
Precipitation  
Precipitation 0.00 in - - ()
Sea Level Pressure  
Sea Level Pressure 30.16 in    
Wind  
Wind Speed 6 mph ()    
Max Wind Speed 11 mph    
Max Gust Speed -    
Visibility 11.1 miles    
Events      
T = Trace of Precipitation, MM = Missing Value Source: Averaged Metar Reports

Daily Weather History Graph

Daily Weather History Graph

Search for Another Location

Airport or City:

Astronomy

Aug. 25, 2019 Rise Set
Actual Time 6:01 AM CEST 7:53 PM CEST
Civil Twilight 5:27 AM CEST 8:27 PM CEST
Nautical Twilight 4:45 AM CEST 9:08 PM CEST
Astronomical Twilight 3:58 AM CEST 9:54 PM CEST
Moon 12:08 AM CEST (8/25) 4:13 PM CEST (8/25)
Length of Visible Light 14h 59m
Length of Day
13h 52m
Waning Crescent, 32% of the Moon is Illuminated
Aug 25
Waning Crescent
Aug 30
New
Sep 6
First Quarter
Sep 14
Full
Sep 22
Last Quarter

Hourly Weather History & Observations

Time (CEST) Temp. Dew Point Humidity Pressure Visibility Wind Dir Wind Speed Gust Speed Precip Events Conditions
12:00 AM 70 °F 59 °F 60% 30.14 in 12 mi ENE 6.7 mph - -   Clear
12:00 AM 69.8 °F 60.8 °F 73% 30.18 in - ENE 5.8 mph - N/A   Clear
2:00 AM 67 °F 58 °F 66% 30.12 in 12 mi NE 6.7 mph - -   Partly Cloudy
2:00 AM 68.0 °F 59.0 °F 73% 30.15 in - ENE 6.9 mph - N/A   Clear
3:00 AM 66 °F 58 °F 70% 30.12 in 12 mi East 6.7 mph - -   Clear
3:00 AM 66.2 °F 60.8 °F 83% 30.15 in - East 6.9 mph - N/A   Clear
4:00 AM 65 °F 59 °F 74% 30.15 in 12 mi East 6.7 mph - -   Partly Cloudy
5:00 AM 65 °F 59 °F 76% 30.17 in 12 mi ESE 11.2 mph - -   Mostly Cloudy
5:00 AM 64.4 °F 60.8 °F 88% 30.18 in - ESE 10.4 mph - N/A   Clear
6:00 AM 64 °F 59 °F 79% 30.16 in 12 mi ESE 6.7 mph - -   Mostly Cloudy
7:00 AM 64 °F 59 °F 78% 30.16 in 12 mi East 8.9 mph - -   Partly Cloudy
7:00 AM 64.4 °F 60.8 °F 88% 30.18 in - East 8.1 mph - N/A   Clear
8:00 AM 64 °F 60 °F 84% 30.14 in 12 mi NE 4.5 mph - -   Mostly Cloudy
8:00 AM 64.4 °F 60.8 °F 88% 30.18 in - NE 5.8 mph - N/A   Clear
9:00 AM 68.0 °F 60.8 °F 78% 30.18 in - East 5.8 mph - N/A   Clear
10:00 AM 72 °F 58 °F 52% 30.15 in 12 mi SE 11.2 mph - -   Partly Cloudy
10:00 AM 73.4 °F 59.0 °F 61% 30.18 in - SE 9.2 mph - N/A   Clear
11:00 AM 69.8 °F 59.0 °F 68% 30.21 in - East 10.4 mph - N/A   Clear
1:00 PM 73.4 °F 60.8 °F 65% 30.18 in - ESE 5.8 mph - N/A   Clear
2:00 PM 74 °F 58 °F 48% 30.13 in 25 mi ESE 8.9 mph - -   Scattered Clouds
2:00 PM 75.2 °F 60.8 °F 61% 30.18 in 6.2 mi ESE 9.2 mph - N/A   Mostly Cloudy
3:00 PM 74 °F 59 °F 50% 30.13 in 25 mi ESE 8.9 mph - -   Scattered Clouds
3:00 PM 75.2 °F 60.8 °F 61% 30.18 in 6.2 mi ESE 9.2 mph - N/A   Mostly Cloudy
6:00 PM 76 °F 57 °F 41% 30.09 in 25 mi ESE 6.7 mph - -   Mostly Cloudy
8:00 PM 73 °F 57 °F 48% 30.12 in 25 mi East 6.7 mph - -   Partly Cloudy
8:00 PM 73.4 °F 57.2 °F 57% 30.18 in - ESE 5.8 mph - N/A   Clear
9:00 PM 71 °F 57 °F 53% 30.14 in 12 mi SE 2.2 mph - -   Scattered Clouds
9:00 PM 71.6 °F 57.2 °F 60% 30.18 in - ESE 2.3 mph - N/A   Clear
10:00 PM 71 °F 57 °F 52% 30.14 in 12 mi SE 2.2 mph - -   Partly Cloudy
10:00 PM 71.6 °F 59.0 °F 64% 30.18 in - Calm Calm - N/A   Clear